Location: Bruch
(44.2051°N, 0.4120°E)
Time: 04:25:30
(UTC+00:00)

Cosmos 405 Rocket - Pass Details

Date: 29 November 2020
Orbit: 489 x 554 km, 81.3° (Epoch: 27 January)

Event Time Altitude Azimuth Distance (km) Brightness Sun altitude
Rises 05:34:24 0° 185° (S) 2,551 6.3 -17.0°
Reaches altitude 10° 05:36:29 10° 183° (S) 1,678 5.4 -16.6°
Maximum altitude 05:40:09 75° 98° (E) 518 2.8 -16.0°
Drops below altitude 10° 05:43:54 10° 14° (NNE) 1,716 5.3 -15.3°
Sets 05:46:03 0° 12° (NNE) 2,615 6.2 -15.0°
